When you browse on this site, cookies collect data to enhance your experience and personalize the content and advertising you see.
Visit our Privacy Policy to learn more. By continuing to use the site, you agree to this use of cookies and data.
  • In Romania
  • List of Countries
  • For 7 days
  • Water Temperature
  • Weather Map
  • Weather Widgets
  • user-avatar
    Login

    Hourly Weather Sarreguemines

    Today, 19 September, Thursday

    Time Temperature Precipitation Wind Pressure Humidity
    00:00 +9°C° 0 mm 3 mps 745 mmHg 68%
    01:00 +8°C° 0 mm 3 mps 745 mmHg 70%
    02:00 +8°C° 0 mm 3 mps 745 mmHg 72%
    03:00 +8°C° 0 mm 3 mps 744 mmHg 74%
    04:00 +7°C° 0 mm 3 mps 745 mmHg 75%
    05:00 +7°C° 0 mm 3 mps 745 mmHg 76%
    06:00 +7°C° 0 mm 3 mps 745 mmHg 77%
    07:00 +8°C° 0 mm 4 mps 745 mmHg 69%
    08:00 +10°C° 0 mm 5 mps 746 mmHg 61%
    09:00 +13°C° 0 mm 5 mps 746 mmHg 53%
    10:00 +14°C° 0 mm 5 mps 746 mmHg 50%
    11:00 +15°C° 0 mm 5 mps 746 mmHg 47%
    12:00 +16°C° 0 mm 5 mps 745 mmHg 44%
    13:00 +16°C° 0 mm 5 mps 745 mmHg 42%
    14:00 +16°C° 0 mm 5 mps 745 mmHg 41%
    15:00 +16°C° 0 mm 5 mps 745 mmHg 39%
    16:00 +14°C° 0 mm 4 mps 745 mmHg 45%
    17:00 +12°C° 0 mm 4 mps 745 mmHg 50%
    18:00 +11°C° 0 mm 3 mps 745 mmHg 56%
    19:00 +10°C° 0 mm 3 mps 745 mmHg 58%
    20:00 +9°C° 0 mm 3 mps 745 mmHg 61%
    21:00 +8°C° 0 mm 3 mps 746 mmHg 63%
    22:00 +8°C° 0 mm 3 mps 746 mmHg 64%
    23:00 +8°C° 0 mm 3 mps 746 mmHg 65%

    Tomorrow, 20 September, Friday

    Time Temperature Precipitation Wind Pressure Humidity
    00:00 +7°C° 0 mm 4 mps 746 mmHg 66%
    01:00 +6°C° 0 mm 4 mps 745 mmHg 68%
    02:00 +6°C° 0 mm 4 mps 745 mmHg 71%
    03:00 +6°C° 0 mm 4 mps 745 mmHg 73%
    04:00 +6°C° 0 mm 4 mps 745 mmHg 73%
    05:00 +6°C° 0 mm 4 mps 744 mmHg 73%
    06:00 +6°C° 0 mm 4 mps 744 mmHg 73%
    07:00 +8°C° 0 mm 5 mps 745 mmHg 64%
    08:00 +10°C° 0 mm 5 mps 745 mmHg 56%
    09:00 +13°C° 0 mm 6 mps 745 mmHg 47%
    10:00 +15°C° 0 mm 6 mps 744 mmHg 44%
    11:00 +16°C° 0 mm 6 mps 744 mmHg 40%
    12:00 +17°C° 0 mm 6 mps 743 mmHg 36%
    13:00 +17°C° 0 mm 6 mps 743 mmHg 37%
    14:00 +19°C° 0 mm 6 mps 742 mmHg 38%
    15:00 +19°C° 0 mm 6 mps 742 mmHg 38%
    16:00 +16°C° 0 mm 5 mps 742 mmHg 43%
    17:00 +14°C° 0 mm 5 mps 741 mmHg 48%
    18:00 +13°C° 0 mm 5 mps 741 mmHg 53%
    19:00 +12°C° 0 mm 5 mps 741 mmHg 55%
    20:00 +12°C° 0 mm 5 mps 741 mmHg 57%
    21:00 +10°C° 0 mm 5 mps 741 mmHg 59%
    22:00 +10°C° 0 mm 5 mps 741 mmHg 60%
    23:00 +10°C° 0 mm 4 mps 740 mmHg 62%

    Day after tomorrow, 21 September, Saturday

    Time Temperature Precipitation Wind Pressure Humidity
    00:00 +10°C° 0 mm 4 mps 740 mmHg 64%
    01:00 +8°C° 0 mm 4 mps 740 mmHg 66%
    02:00 +8°C° 0 mm 4 mps 739 mmHg 69%
    03:00 +7°C° 0 mm 4 mps 739 mmHg 72%
    04:00 +8°C° 0 mm 3 mps 739 mmHg 72%
    05:00 +8°C° 0 mm 3 mps 739 mmHg 73%
    06:00 +8°C° 0 mm 3 mps 738 mmHg 74%
    07:00 +11°C° 0 mm 3 mps 738 mmHg 67%
    08:00 +13°C° 0 mm 3 mps 738 mmHg 59%
    09:00 +17°C° 0 mm 3 mps 738 mmHg 52%
    10:00 +18°C° 0 mm 3 mps 738 mmHg 50%
    11:00 +20°C° 0 mm 3 mps 738 mmHg 47%
    12:00 +22°C° 0 mm 3 mps 737 mmHg 45%
    13:00 +24°C° 0 mm 3 mps 737 mmHg 45%
    14:00 +24°C° 0 mm 3 mps 736 mmHg 45%
    15:00 +24°C° 0 mm 3 mps 735 mmHg 46%
    16:00 +21°C° 0 mm 3 mps 735 mmHg 51%
    17:00 +19°C° 0 mm 3 mps 735 mmHg 56%
    18:00 +17°C° 0 mm 3 mps 735 mmHg 61%
    19:00 +16°C° 0 mm 3 mps 735 mmHg 62%
    20:00 +15°C° 0 mm 2 mps 734 mmHg 63%
    21:00 +15°C° 0 mm 2 mps 734 mmHg 65%
    22:00 +14°C° 0 mm 2 mps 734 mmHg 69%
    23:00 +14°C° 0 mm 1 mps 734 mmHg 73%

    22 September, Sunday

    Time Temperature Precipitation Wind Pressure Humidity
    00:00 +14°C° 0 mm 1 mps 734 mmHg 77%
    01:00 +14°C° 0 mm 1 mps 734 mmHg 77%
    02:00 +14°C° 0 mm 1 mps 734 mmHg 78%
    03:00 +14°C° 0 mm 1 mps 734 mmHg 78%
    04:00 +14°C° 0.5 mm 1 mps 734 mmHg 83%
    05:00 +14°C° 0.5 mm 1 mps 733 mmHg 87%
    06:00 +15°C° 0.5 mm 2 mps 733 mmHg 91%
    07:00 +16°C° 0.2 mm 2 mps 733 mmHg 88%
    08:00 +17°C° 0.2 mm 2 mps 733 mmHg 85%
    09:00 +18°C° 0.2 mm 3 mps 733 mmHg 81%
    10:00 +20°C° 0.1 mm 3 mps 733 mmHg 73%
    11:00 +22°C° 0.1 mm 3 mps 733 mmHg 65%
    12:00 +25°C° 0.1 mm 3 mps 732 mmHg 56%
    13:00 +25°C° 0.7 mm 3 mps 732 mmHg 58%
    14:00 +25°C° 0.7 mm 3 mps 731 mmHg 60%
    15:00 +26°C° 0.7 mm 3 mps 731 mmHg 62%
    16:00 +22°C° 0.9 mm 3 mps 731 mmHg 71%
    17:00 +20°C° 0.9 mm 3 mps 731 mmHg 80%
    18:00 +18°C° 0.9 mm 3 mps 731 mmHg 90%
    19:00 +17°C° 1.4 mm 4 mps 732 mmHg 91%
    20:00 +15°C° 1.4 mm 6 mps 733 mmHg 92%
    21:00 +14°C° 1.4 mm 7 mps 733 mmHg 94%
    22:00 +14°C° 2 mm 6 mps 734 mmHg 94%
    23:00 +13°C° 2 mm 6 mps 734 mmHg 94%

    23 September, Monday

    Time Temperature Precipitation Wind Pressure Humidity
    00:00 +13°C° 2 mm 5 mps 735 mmHg 94%
    01:00 +13°C° 0.3 mm 5 mps 735 mmHg 94%
    02:00 +12°C° 0.3 mm 4 mps 735 mmHg 94%
    03:00 +12°C° 0.3 mm 4 mps 735 mmHg 94%
    04:00 +12°C° 0.1 mm 4 mps 736 mmHg 94%
    05:00 +12°C° 0.1 mm 5 mps 736 mmHg 93%
    06:00 +13°C° 0.1 mm 5 mps 736 mmHg 93%
    07:00 +13°C° 0.1 mm 5 mps 736 mmHg 91%
    08:00 +13°C° 0.1 mm 5 mps 737 mmHg 88%
    09:00 +14°C° 0.1 mm 5 mps 737 mmHg 86%
    10:00 +14°C° 0.1 mm 5 mps 737 mmHg 81%
    11:00 +15°C° 0.1 mm 5 mps 737 mmHg 76%
    12:00 +17°C° 0.1 mm 4 mps 737 mmHg 70%
    13:00 +18°C° 0.1 mm 4 mps 736 mmHg 65%
    14:00 +18°C° 0.1 mm 4 mps 736 mmHg 60%
    15:00 +19°C° 0.1 mm 4 mps 736 mmHg 55%
    16:00 +17°C° 0 mm 3 mps 736 mmHg 60%
    17:00 +15°C° 0 mm 2 mps 736 mmHg 66%
    18:00 +14°C° 0 mm 1 mps 736 mmHg 71%
    19:00 +13°C° 0 mm 2 mps 736 mmHg 73%
    20:00 +13°C° 0 mm 2 mps 736 mmHg 75%
    21:00 +12°C° 0 mm 2 mps 737 mmHg 77%
    22:00 +12°C° 0 mm 2 mps 737 mmHg 80%
    23:00 +11°C° 0 mm 3 mps 737 mmHg 83%

    24 September, Tuesday

    Time Temperature Precipitation Wind Pressure Humidity
    00:00 +11°C° 0 mm 3 mps 737 mmHg 87%
    01:00 +11°C° 0 mm 3 mps 737 mmHg 89%
    02:00 +12°C° 0 mm 2 mps 737 mmHg 92%
    03:00 +12°C° 0 mm 2 mps 737 mmHg 95%
    04:00 +12°C° 0.1 mm 2 mps 737 mmHg 95%
    05:00 +12°C° 0.1 mm 3 mps 737 mmHg 94%
    06:00 +13°C° 0.1 mm 3 mps 736 mmHg 94%
    07:00 +13°C° 0.1 mm 3 mps 737 mmHg 94%
    08:00 +13°C° 0.1 mm 4 mps 737 mmHg 93%
    09:00 +13°C° 0.1 mm 4 mps 737 mmHg 93%
    10:00 +14°C° 0 mm 4 mps 737 mmHg 90%
    11:00 +15°C° 0 mm 4 mps 736 mmHg 88%
    12:00 +17°C° 0 mm 4 mps 736 mmHg 86%
    13:00 +17°C° 0.2 mm 4 mps 736 mmHg 87%
    14:00 +17°C° 0.2 mm 3 mps 736 mmHg 89%
    15:00 +17°C° 0.2 mm 3 mps 735 mmHg 90%
    16:00 +16°C° 0.1 mm 3 mps 735 mmHg 92%
    17:00 +16°C° 0.1 mm 2 mps 735 mmHg 94%
    18:00 +16°C° 0.1 mm 2 mps 734 mmHg 95%
    19:00 +16°C° 0.8 mm 3 mps 734 mmHg 95%
    20:00 +16°C° 0.8 mm 3 mps 734 mmHg 96%
    21:00 +15°C° 0.8 mm 4 mps 734 mmHg 96%
    22:00 +15°C° 0.5 mm 4 mps 734 mmHg 95%
    23:00 +15°C° 0.5 mm 4 mps 733 mmHg 95%
    Show more